When you browse on this site, cookies collect data to enhance your experience and personalize the content and advertising you see.
Visit our Privacy Policy to learn more. By continuing to use the site, you agree to this use of cookies and data.
  • In United Kingdom
  • List of Countries
  • For 7 days
  • Water Temperature
  • Weather Map
  • Weather Widgets
  • user-avatar
    Login

    Hourly Weather Poznan

    Today, 19 September, Thursday

    Time Temperature Precipitation Wind Pressure Humidity
    00:00 +8°C° 0 mm 3 mps 758 mmHg 78%
    01:00 +6°C° 0 mm 4 mps 758 mmHg 82%
    02:00 +6°C° 0 mm 4 mps 758 mmHg 86%
    03:00 +5°C° 0 mm 4 mps 758 mmHg 90%
    04:00 +5°C° 0 mm 4 mps 758 mmHg 93%
    05:00 +6°C° 0 mm 4 mps 759 mmHg 92%
    06:00 +6°C° 0 mm 4 mps 759 mmHg 90%
    07:00 +6°C° 0 mm 5 mps 759 mmHg 89%
    08:00 +8°C° 0.1 mm 5 mps 760 mmHg 80%
    09:00 +10°C° 0.1 mm 5 mps 760 mmHg 71%
    10:00 +13°C° 0.1 mm 5 mps 760 mmHg 62%
    11:00 +14°C° 0.3 mm 5 mps 760 mmHg 57%
    12:00 +15°C° 0.3 mm 6 mps 760 mmHg 53%
    13:00 +15°C° 0.3 mm 6 mps 760 mmHg 48%
    14:00 +15°C° 0.1 mm 6 mps 760 mmHg 47%
    15:00 +15°C° 0.1 mm 6 mps 760 mmHg 45%
    16:00 +15°C° 0.1 mm 6 mps 761 mmHg 43%
    17:00 +14°C° 0 mm 5 mps 761 mmHg 49%
    18:00 +12°C° 0 mm 4 mps 761 mmHg 55%
    19:00 +10°C° 0 mm 3 mps 761 mmHg 61%
    20:00 +10°C° 0 mm 3 mps 762 mmHg 65%
    21:00 +9°C° 0 mm 3 mps 762 mmHg 68%
    22:00 +9°C° 0 mm 2 mps 762 mmHg 71%
    23:00 +8°C° 0 mm 2 mps 762 mmHg 74%

    Tomorrow, 20 September, Friday

    Time Temperature Precipitation Wind Pressure Humidity
    00:00 +8°C° 0 mm 2 mps 762 mmHg 76%
    01:00 +8°C° 0 mm 3 mps 762 mmHg 78%
    02:00 +7°C° 0 mm 3 mps 762 mmHg 82%
    03:00 +7°C° 0 mm 3 mps 762 mmHg 85%
    04:00 +5°C° 0 mm 3 mps 762 mmHg 88%
    05:00 +7°C° 0 mm 3 mps 762 mmHg 87%
    06:00 +7°C° 0 mm 3 mps 762 mmHg 85%
    07:00 +8°C° 0 mm 3 mps 762 mmHg 83%
    08:00 +9°C° 0 mm 3 mps 762 mmHg 76%
    09:00 +11°C° 0 mm 3 mps 763 mmHg 68%
    10:00 +13°C° 0 mm 3 mps 763 mmHg 61%
    11:00 +14°C° 0 mm 3 mps 762 mmHg 56%
    12:00 +15°C° 0 mm 4 mps 762 mmHg 51%
    13:00 +15°C° 0 mm 4 mps 762 mmHg 46%
    14:00 +15°C° 0 mm 4 mps 761 mmHg 48%
    15:00 +15°C° 0 mm 4 mps 761 mmHg 50%
    16:00 +15°C° 0 mm 4 mps 761 mmHg 52%
    17:00 +13°C° 0 mm 4 mps 761 mmHg 58%
    18:00 +12°C° 0 mm 3 mps 761 mmHg 65%
    19:00 +12°C° 0 mm 2 mps 761 mmHg 71%
    20:00 +10°C° 0 mm 2 mps 761 mmHg 75%
    21:00 +9°C° 0 mm 2 mps 761 mmHg 80%
    22:00 +9°C° 0 mm 2 mps 761 mmHg 84%
    23:00 +9°C° 0 mm 2 mps 761 mmHg 85%

    Day after tomorrow, 21 September, Saturday

    Time Temperature Precipitation Wind Pressure Humidity
    00:00 +9°C° 0 mm 2 mps 761 mmHg 86%
    01:00 +9°C° 0 mm 2 mps 761 mmHg 87%
    02:00 +8°C° 0 mm 2 mps 761 mmHg 89%
    03:00 +8°C° 0 mm 2 mps 761 mmHg 90%
    04:00 +8°C° 0 mm 3 mps 760 mmHg 91%
    05:00 +8°C° 0 mm 3 mps 760 mmHg 89%
    06:00 +9°C° 0 mm 3 mps 760 mmHg 86%
    07:00 +9°C° 0 mm 3 mps 760 mmHg 84%
    08:00 +11°C° 0 mm 3 mps 760 mmHg 76%
    09:00 +13°C° 0 mm 3 mps 760 mmHg 69%
    10:00 +16°C° 0 mm 3 mps 760 mmHg 61%
    11:00 +17°C° 0 mm 3 mps 760 mmHg 57%
    12:00 +18°C° 0 mm 3 mps 760 mmHg 53%
    13:00 +19°C° 0 mm 3 mps 759 mmHg 50%
    14:00 +19°C° 0 mm 3 mps 759 mmHg 49%
    15:00 +19°C° 0 mm 2 mps 758 mmHg 49%
    16:00 +19°C° 0 mm 2 mps 758 mmHg 48%
    17:00 +18°C° 0 mm 2 mps 758 mmHg 53%
    18:00 +16°C° 0 mm 1 mps 758 mmHg 58%
    19:00 +14°C° 0 mm 1 mps 758 mmHg 63%
    20:00 +14°C° 0 mm 1 mps 758 mmHg 63%
    21:00 +13°C° 0 mm 1 mps 758 mmHg 64%
    22:00 +13°C° 0 mm 2 mps 758 mmHg 65%
    23:00 +13°C° 0 mm 2 mps 757 mmHg 66%

    22 September, Sunday

    Time Temperature Precipitation Wind Pressure Humidity
    00:00 +12°C° 0 mm 2 mps 757 mmHg 67%
    01:00 +12°C° 0 mm 2 mps 757 mmHg 68%
    02:00 +12°C° 0 mm 2 mps 757 mmHg 68%
    03:00 +10°C° 0 mm 2 mps 756 mmHg 69%
    04:00 +10°C° 0 mm 2 mps 756 mmHg 70%
    05:00 +10°C° 0 mm 2 mps 756 mmHg 69%
    06:00 +12°C° 0 mm 2 mps 756 mmHg 68%
    07:00 +11°C° 0 mm 3 mps 755 mmHg 66%
    08:00 +13°C° 0 mm 3 mps 755 mmHg 59%
    09:00 +16°C° 0 mm 3 mps 755 mmHg 52%
    10:00 +18°C° 0 mm 3 mps 755 mmHg 44%
    11:00 +19°C° 0 mm 3 mps 755 mmHg 41%
    12:00 +20°C° 0 mm 4 mps 754 mmHg 38%
    13:00 +22°C° 0 mm 4 mps 753 mmHg 35%
    14:00 +22°C° 0 mm 4 mps 753 mmHg 36%
    15:00 +21°C° 0 mm 4 mps 753 mmHg 38%
    16:00 +21°C° 0 mm 4 mps 752 mmHg 39%
    17:00 +20°C° 0 mm 4 mps 752 mmHg 43%
    18:00 +18°C° 0 mm 4 mps 752 mmHg 48%
    19:00 +16°C° 0 mm 3 mps 751 mmHg 52%
    20:00 +16°C° 0 mm 3 mps 751 mmHg 55%
    21:00 +16°C° 0 mm 3 mps 751 mmHg 58%
    22:00 +14°C° 0 mm 4 mps 751 mmHg 61%
    23:00 +14°C° 0 mm 3 mps 750 mmHg 62%

    23 September, Monday

    Time Temperature Precipitation Wind Pressure Humidity
    00:00 +14°C° 0 mm 3 mps 750 mmHg 63%
    01:00 +13°C° 0 mm 3 mps 749 mmHg 64%
    02:00 +13°C° 0 mm 3 mps 749 mmHg 65%
    03:00 +14°C° 0 mm 2 mps 749 mmHg 65%
    04:00 +13°C° 0 mm 2 mps 748 mmHg 66%
    05:00 +14°C° 0 mm 2 mps 748 mmHg 66%
    06:00 +14°C° 0 mm 1 mps 748 mmHg 66%
    07:00 +14°C° 0 mm 1 mps 748 mmHg 67%
    08:00 +16°C° 0 mm 2 mps 748 mmHg 61%
    09:00 +17°C° 0 mm 2 mps 748 mmHg 54%
    10:00 +19°C° 0 mm 3 mps 748 mmHg 48%
    11:00 +20°C° 0 mm 3 mps 747 mmHg 48%
    12:00 +20°C° 0 mm 4 mps 747 mmHg 49%
    13:00 +21°C° 0 mm 5 mps 747 mmHg 49%
    14:00 +20°C° 0 mm 5 mps 747 mmHg 56%
    15:00 +20°C° 0 mm 6 mps 747 mmHg 63%
    16:00 +19°C° 0 mm 6 mps 747 mmHg 71%
    17:00 +17°C° 0.1 mm 6 mps 747 mmHg 76%
    18:00 +16°C° 0.1 mm 6 mps 748 mmHg 81%
    19:00 +15°C° 0.1 mm 6 mps 748 mmHg 86%
    20:00 +14°C° 0.6 mm 6 mps 748 mmHg 87%
    21:00 +14°C° 0.6 mm 6 mps 748 mmHg 89%
    22:00 +14°C° 0.6 mm 6 mps 748 mmHg 90%
    23:00 +14°C° 1.3 mm 6 mps 748 mmHg 91%

    24 September, Tuesday

    Time Temperature Precipitation Wind Pressure Humidity
    00:00 +14°C° 1.3 mm 6 mps 748 mmHg 91%
    01:00 +13°C° 1.3 mm 5 mps 748 mmHg 91%
    02:00 +13°C° 1 mm 6 mps 748 mmHg 91%
    03:00 +13°C° 1 mm 6 mps 748 mmHg 91%
    04:00 +13°C° 1 mm 6 mps 748 mmHg 91%
    05:00 +13°C° 0.2 mm 6 mps 748 mmHg 90%
    06:00 +13°C° 0.2 mm 5 mps 748 mmHg 90%
    07:00 +13°C° 0.2 mm 5 mps 749 mmHg 89%
    08:00 +14°C° 0 mm 5 mps 749 mmHg 84%
    09:00 +15°C° 0 mm 5 mps 749 mmHg 80%
    10:00 +15°C° 0 mm 5 mps 749 mmHg 75%
    11:00 +17°C° 0 mm 5 mps 749 mmHg 69%
    12:00 +19°C° 0 mm 4 mps 749 mmHg 63%
    13:00 +20°C° 0 mm 4 mps 749 mmHg 57%
    14:00 +20°C° 0 mm 4 mps 749 mmHg 58%
    15:00 +20°C° 0 mm 4 mps 749 mmHg 58%
    16:00 +19°C° 0 mm 3 mps 749 mmHg 59%
    17:00 +18°C° 0 mm 3 mps 749 mmHg 67%
    18:00 +17°C° 0 mm 3 mps 749 mmHg 75%
    19:00 +16°C° 0 mm 3 mps 748 mmHg 83%
    20:00 +14°C° 0 mm 3 mps 748 mmHg 86%
    21:00 +14°C° 0 mm 3 mps 748 mmHg 89%
    22:00 +14°C° 0 mm 3 mps 748 mmHg 92%
    23:00 +14°C° 0.1 mm 4 mps 748 mmHg 92%
    Show more